Retour au catalogue

ONEWEB-0511

ActifCommunicationsPO
NORAD 54129·PAYLOAD·🇬🇧 United Kingdom

Lancé Oct 22, 2022 depuis Satish Dhawan Space Centre

Loading…

Prochains Passages (prochaines 24 heures)

TLE

FraisSource: CelesTrak SupGP

Époque: Sep 14, 2026, 17:27 UTC

1 54129C 22138S   26257.72759676 -.00001470  00000+0 -36775-2 0  2578
2 54129  87.9105 287.1324 0002221  94.5741  16.5949 13.19723909    16

Suivez ONEWEB-0511 en temps réel avec AllMySat

Download on the App Store